Location: Im Fang
(46.6019°N, 7.2397°E)
Time: 13:37:47
(UTC+00:00)

Meteor 1-14 Rocket - Pass Details

Date: 08 December 2019
Orbit: 833 x 920 km, 81.3° (Epoch: 26 January)

Event Time Altitude Azimuth Distance (km) Brightness Sun altitude
Rises 05:53:30 0° 204° (SSW) 3,511 7.4 -11.3°
Reaches altitude 10° 05:56:00 10° 210° (SSW) 2,584 6.7 -10.9°
Maximum altitude 06:01:46 53° 286° (WNW) 1,123 4.5 -9.9°
Drops below altitude 10° 06:07:38 10° 3° (N) 2,626 6.6 -9.0°
Sets 06:10:12 0° 8° (N) 3,573 7.3 -8.6°
